Location: Caltech
(34.1382°N, 118.1253°W)
Time: 23:44:20
(UTC-07:00)

Tiros 1 despin weight - Visible Passes

Search period start: 01 September 2014 00:00
Search period end: 11 September 2014 00:00
Orbit: 601 x 653 km, 48.2° (Epoch: 01 September)

Date Brightness Start Highest point End Pass type
(mag) Time Alt. Az. Time Alt. Az. Time Alt. Az.
01 Sep ? 03:51:04 33° E 03:51:04 33° E 03:54:06 10° ENE visible
01 Sep ? 05:28:19 16° W 05:31:30 36° NNW 05:35:52 10° NE visible
02 Sep ? 04:09:49 62° NE 04:09:49 62° NE 04:13:44 10° NE visible
02 Sep ? 05:47:35 10° WNW 05:51:18 23° NNW 05:55:04 10° NNE visible
03 Sep ? 04:28:30 45° NW 04:28:34 45° NNW 04:33:05 10° NE visible
04 Sep ? 03:09:54 16° ENE 03:09:54 16° ENE 03:10:50 10° ENE visible
04 Sep ? 04:47:09 24° NW 04:48:17 27° NNW 04:52:18 10° NE visible
05 Sep ? 03:28:30 22° NE 03:28:30 22° NE 03:30:16 10° NE visible
05 Sep ? 05:05:45 13° NW 05:08:11 19° NNW 05:11:31 10° NNE visible
06 Sep ? 03:47:05 24° NNE 03:47:05 24° NNE 03:49:31 10° NE visible
06 Sep ? 05:25:29 10° NW 05:28:12 15° N 05:30:56 10° NNE visible
07 Sep ? 04:05:38 21° N 04:05:38 21° N 04:08:42 10° NNE visible
07 Sep ? 05:45:45 10° NNW 05:48:17 14° N 05:50:49 10° NE visible
08 Sep ? 04:24:11 15° NNW 04:25:05 16° N 04:28:00 10° NNE visible
08 Sep ? 06:05:28 10° NNW 06:08:21 16° N 06:11:15 10° NE visible
09 Sep ? 03:05:30 12° NNE 03:05:30 12° NNE 03:05:54 10° NNE visible
09 Sep ? 04:42:44 10° NNW 04:45:08 14° N 04:47:39 10° NNE visible
10 Sep ? 03:24:04 14° NNE 03:24:04 14° NNE 03:25:08 10° NNE visible
10 Sep ? 05:02:34 10° NNW 05:05:13 15° N 05:07:53 10° NE visible
